Station ALXN6 - 8311062 - Alexandria Bay, NY Image indicating link to RSS feed of recent meteorological observations for station ALXN6


Conditions at ALXN6 as of
(6:48 am EDT)
1048 GMT on 06/17/2024:
     

Click on the graph icon in the table below to see a time series plot of the last five days of that observation.

5-day plot - Atmospheric Pressure Atmospheric Pressure (PRES):30.05 in
5-day plot - Water Temperature Water Temperature (WTMP): 65.8 °F
NOS Water Level Observation Network Water Level
Previous observations
TIME
(EDT)
5-day plot - Wind Direction
WDIR
 
5-day plot - Wind Speed
WSPD
kts
5-day plot - Wind Gust
GST
kts
5-day plot - Wave Height
WVHT
ft
5-day plot - Dominant Wave Period
DPD
sec
5-day plot - Average Wave Period
APD
sec
5-day plot - Mean Wave Direction
MWD
 
5-day plot - Atmospheric Pressure
PRES
in
5-day plot - Pressure Tendency
PTDY
in
5-day plot - Air Temperature
ATMP
°F
5-day plot - Water Temperature
WTMP
°F
5-day plot - Dew Point
DEWP
°F
5-day plot - Salinity
SAL
psu
5-day plot - Visibility
VIS
nmi
5-day plot - Tide (above MLLW)
TIDE
ft
2024-06-17 06:42 am-------30.05-- 65.8----
2024-06-17 06:36 am-------30.04-- 65.8----
2024-06-17 06:30 am-------30.04-- 65.8----
2024-06-17 06:24 am-------30.04-- 65.8----
2024-06-17 06:18 am-------30.04-- 65.8----
2024-06-17 06:12 am-------30.04-- 65.8----
2024-06-17 06:06 am-------30.03-- 65.8----
2024-06-17 06:00 am-------30.03+0.00- 65.8----
2024-06-17 05:54 am-------30.03-- 65.8----
2024-06-17 05:48 am-------30.03-- 65.8----
2024-06-17 05:42 am-------30.02-- 65.8----
2024-06-17 05:36 am-------30.02-- 65.8----
2024-06-17 05:30 am-------30.01-- 65.8----
2024-06-17 05:24 am-------30.01-- 65.8----
2024-06-17 05:18 am-------30.01-- 65.8----
2024-06-17 05:12 am-------30.01-- 65.8----
2024-06-17 05:06 am-------30.01-- 65.8----
2024-06-17 05:00 am-------30.00-0.04- 65.8----
2024-06-17 04:54 am-------30.00-- 65.8----
2024-06-17 04:48 am-------30.00-- 65.8----
2024-06-17 04:42 am-------30.00-- 65.8----
2024-06-17 04:36 am-------30.00-- 65.8----
2024-06-17 04:30 am-------30.01-- 65.8----
2024-06-17 04:24 am-------30.01-- 65.8----
2024-06-17 04:18 am-------30.01-- 65.8----
2024-06-17 04:12 am-------30.01-- 65.8----
2024-06-17 04:06 am-------30.01-- 65.8----
2024-06-17 04:00 am-------30.01-0.03- 65.8----
2024-06-17 03:54 am-------30.02-- 65.8----
2024-06-17 03:48 am-------30.02-- 65.8----
2024-06-17 03:42 am-------30.02-- 65.8----
2024-06-17 03:36 am-------30.02-- 65.8----
2024-06-17 03:30 am-------30.03-- 65.8----
2024-06-17 03:24 am-------30.03-- 65.8----
2024-06-17 03:18 am-------30.03-- 65.8----
2024-06-17 03:12 am-------30.03-- 65.8----
2024-06-17 03:06 am-------30.03-- 65.8----
2024-06-17 03:00 am-------30.03-0.02- 65.8----
2024-06-17 02:54 am-------30.03-- 65.8----
2024-06-17 02:48 am-------30.03-- 65.8----
2024-06-17 02:42 am-------30.03-- 65.8----
2024-06-17 02:36 am-------30.04-- 65.8----
2024-06-17 02:30 am-------30.04-- 65.8----
2024-06-17 02:24 am-------30.04-- 65.8----
2024-06-17 02:18 am-------30.04-- 65.8----
2024-06-17 02:12 am-------30.04-- 65.8----
2024-06-17 02:06 am-------30.04-- 65.8----
2024-06-17 02:00 am-------30.04-0.02- 65.8----
2024-06-17 01:54 am-------30.04-- 65.8----
2024-06-17 01:48 am-------30.04-- 65.8----
2024-06-17 01:42 am-------30.04-- 65.8----
2024-06-17 01:36 am-------30.04-- 65.8----
2024-06-17 01:30 am-------30.05-- 65.8----
2024-06-17 01:24 am-------30.05-- 65.8----
2024-06-17 01:18 am---------- 65.8----
2024-06-17 01:12 am---------- 65.8----
2024-06-17 01:06 am---------- 65.8----
2024-06-17 01:00 am-------30.04-0.04- 65.8----
2024-06-17 12:54 am-------30.04-- 65.8----
2024-06-17 12:48 am-------30.04-- 65.8----
2024-06-17 12:42 am-------30.05-- 65.8----
2024-06-17 12:36 am-------30.05-- 65.8----
2024-06-17 12:30 am-------30.05-- 65.8----
2024-06-17 12:24 am-------30.05-- 65.8----
2024-06-17 12:18 am-------30.05-- 65.7----
2024-06-17 12:12 am-------30.05-- 65.8----
2024-06-17 12:06 am-------30.05-- 65.8----
2024-06-17 12:00 am-------30.05-0.04- 65.7----
2024-06-16 11:54 pm-------30.05-- 65.7----
2024-06-16 11:48 pm-------30.06-- 65.8----
2024-06-16 11:42 pm-------30.06-- 65.8----
2024-06-16 11:36 pm-------30.06-- 65.8----
2024-06-16 11:30 pm-------30.06-- 65.8----
2024-06-16 11:24 pm-------30.06-- 65.8----
2024-06-16 11:18 pm-------30.06-- 65.8----
2024-06-16 11:12 pm-------30.06-- 65.8----
2024-06-16 11:06 pm-------30.06-- 65.7----
2024-06-16 11:00 pm-------30.06-0.05- 65.8----
2024-06-16 10:54 pm-------30.06-- 65.7----
2024-06-16 10:48 pm-------30.06-- 65.7----
2024-06-16 10:42 pm-------30.07-- 65.8----
2024-06-16 10:36 pm-------30.07-- 65.7----
2024-06-16 10:30 pm-------30.08-- 65.7----
2024-06-16 10:24 pm-------30.08-- 65.7----
2024-06-16 10:18 pm-------30.08-- 65.7----
2024-06-16 10:12 pm-------30.08-- 65.7----
2024-06-16 10:06 pm-------30.08-- 65.7----
2024-06-16 10:00 pm-------30.08-0.05- 65.7----
2024-06-16 09:54 pm-------30.09-- 65.7----
2024-06-16 09:48 pm-------30.09-- 65.7----
2024-06-16 09:42 pm-------30.09-- 65.7----
2024-06-16 09:36 pm-------30.09-- 65.7----
2024-06-16 09:30 pm---------- 65.7----
2024-06-16 09:24 pm---------- 65.7----
2024-06-16 09:18 pm---------- 65.7----
2024-06-16 09:12 pm---------- 65.7----
2024-06-16 09:06 pm---------- 65.7----
2024-06-16 09:00 pm-------30.10-0.02- 65.7----
2024-06-16 08:54 pm-------30.10-- 65.7----
2024-06-16 08:48 pm-------30.10-- 65.8----
2024-06-16 08:42 pm-------30.10-- 65.8----
2024-06-16 08:36 pm-------30.10-- 65.7----
2024-06-16 08:30 pm-------30.10-- 65.7----
2024-06-16 08:24 pm-------30.10-- 65.8----
2024-06-16 08:18 pm-------30.10-- 65.7----
2024-06-16 08:12 pm-------30.11-- 65.7----
2024-06-16 08:06 pm-------30.11-- 65.7----
2024-06-16 08:00 pm-------30.11-0.04- 65.7----
2024-06-16 07:54 pm-------30.11-- 65.7----
2024-06-16 07:48 pm-------30.11-- 65.7----
2024-06-16 07:42 pm-------30.12-- 65.7----
2024-06-16 07:36 pm-------30.12-- 65.7----
2024-06-16 07:30 pm-------30.12-- 65.7----
2024-06-16 07:24 pm-------30.12-- 65.7----
2024-06-16 07:18 pm-------30.13-- 65.7----
2024-06-16 07:12 pm-------30.13-- 65.7----
2024-06-16 07:06 pm-------30.13-- 65.7----
2024-06-16 07:00 pm-------30.13-0.04- 65.8----
2024-06-16 06:54 pm-------30.13-- 65.8----
2024-06-16 06:48 pm-------30.13-- 65.8----
2024-06-16 06:42 pm-------30.12-- 65.8----
2024-06-16 06:36 pm-------30.12-- 65.8----
2024-06-16 06:30 pm---------- 65.8----
2024-06-16 06:24 pm---------- 65.8----
2024-06-16 06:18 pm-------30.12-- 65.8----
2024-06-16 06:12 pm-------30.12-- 65.8----
2024-06-16 06:06 pm-------30.12-- 65.8----
2024-06-16 06:00 pm-------30.11-0.06- 65.8----
2024-06-16 05:54 pm-------30.12-- 65.8----
2024-06-16 05:48 pm-------30.12-------
2024-06-16 05:42 pm-------30.13-------
2024-06-16 05:36 pm-------30.13-------
2024-06-16 05:30 pm-------30.14-- 65.8----
2024-06-16 05:24 pm-------30.14-- 65.8----
2024-06-16 05:18 pm-------30.14-- 65.8----
2024-06-16 05:12 pm-------30.15-- 65.8----
2024-06-16 05:06 pm-------30.15-- 65.8----
2024-06-16 05:00 pm-------30.15-0.05- 65.8----
2024-06-16 04:54 pm-------30.15-- 65.8----
2024-06-16 04:48 pm-------30.15-- 65.7----
2024-06-16 04:42 pm-------30.15-- 65.7----
2024-06-16 04:36 pm-------30.15-- 65.7----
2024-06-16 04:30 pm-------30.16-- 65.7----
2024-06-16 04:24 pm-------30.16-- 65.7----
2024-06-16 04:18 pm-------30.16-- 65.7----
2024-06-16 04:12 pm-------30.16-- 65.7----
2024-06-16 04:06 pm-------30.16-- 65.7----
2024-06-16 04:00 pm-------30.16-0.05- 65.7----
2024-06-16 03:54 pm-------30.16-- 65.7----
2024-06-16 03:48 pm-------30.16-- 65.7----
2024-06-16 03:42 pm-------30.17-- 65.7----
2024-06-16 03:36 pm-------30.17-- 65.8----
2024-06-16 03:30 pm-------30.17-- 65.8----
2024-06-16 03:24 pm-------30.17-- 65.8----
2024-06-16 03:18 pm-------30.17-- 65.8----
2024-06-16 03:12 pm-------30.17-- 65.8----
2024-06-16 03:06 pm-------30.17-- 65.8----
2024-06-16 03:00 pm-------30.18-0.05- 65.8----
2024-06-16 02:54 pm-------30.18-- 65.8----
2024-06-16 02:48 pm-------30.18-- 65.8----
2024-06-16 02:42 pm-------30.18-- 65.8----
2024-06-16 02:36 pm-------30.18-- 65.8----
2024-06-16 02:30 pm-------30.18-- 65.8----
2024-06-16 02:24 pm-------30.19-- 65.8----
2024-06-16 02:18 pm-------30.19-- 65.8----
2024-06-16 02:12 pm-------30.19-- 65.8----
2024-06-16 02:06 pm-------30.19-- 65.8----
2024-06-16 02:00 pm-------30.19-0.05- 65.8----
2024-06-16 01:54 pm-------30.20-- 65.8----
2024-06-16 01:48 pm-------30.20-- 65.8----
2024-06-16 01:42 pm-------30.20-- 65.8----
2024-06-16 01:36 pm-------30.20-- 65.8----
2024-06-16 01:30 pm-------30.21-- 65.8----
2024-06-16 01:24 pm-------30.21-- 65.8----
2024-06-16 01:18 pm-------30.21-- 65.8----
2024-06-16 01:12 pm-------30.21-- 65.8----
2024-06-16 01:06 pm-------30.21-- 65.8----
2024-06-16 01:00 pm-------30.21-0.04- 65.8----
2024-06-16 12:54 pm-------30.21-- 65.8----
2024-06-16 12:48 pm-------30.22-- 65.8----
2024-06-16 12:42 pm-------30.22-- 66.0----
2024-06-16 12:36 pm-------30.22-- 66.0----
2024-06-16 12:30 pm-------30.22-- 66.0----
2024-06-16 12:24 pm-------30.22-- 66.0----
2024-06-16 12:18 pm-------30.22-------
2024-06-16 12:12 pm-------30.22-------
2024-06-16 12:06 pm-------30.22-------
2024-06-16 12:00 pm-------30.22-0.04- 66.0----
2024-06-16 11:54 am-------30.23-- 65.8----
2024-06-16 11:48 am-------30.23-- 66.0----
2024-06-16 11:42 am-------30.23-- 66.0----
2024-06-16 11:36 am-------30.23-- 66.0----
2024-06-16 11:30 am-------30.23-- 65.8----
2024-06-16 11:24 am-------30.23-- 65.8----
2024-06-16 11:18 am-------30.24-- 65.8----
2024-06-16 11:12 am-------30.24-- 66.0----
2024-06-16 11:06 am-------30.24-- 65.8----
2024-06-16 11:00 am-------30.24-0.03- 65.8----
2024-06-16 10:54 am-------30.24-- 66.0----
2024-06-16 10:48 am-------30.24-- 65.8----
2024-06-16 10:42 am-------30.25-- 65.8----
2024-06-16 10:36 am-------30.25-- 65.8----
2024-06-16 10:30 am-------30.25-- 65.7----
2024-06-16 10:24 am-------30.25-- 65.7----
2024-06-16 10:18 am-------30.25-- 65.7----
2024-06-16 10:12 am-------30.25-- 65.7----
2024-06-16 10:06 am-------30.25-- 65.7----
2024-06-16 10:00 am-------30.25-0.01- 65.7----
2024-06-16 09:54 am-------30.25-- 65.7----
2024-06-16 09:48 am-------30.25-- 65.7----
2024-06-16 09:42 am-------30.25-- 65.7----
2024-06-16 09:36 am-------30.25-- 65.7----
2024-06-16 09:30 am-------30.26-- 65.7----
2024-06-16 09:24 am-------30.26-- 65.5----
2024-06-16 09:18 am-------30.26-- 65.7----
2024-06-16 09:12 am-------30.26-- 65.7----
2024-06-16 09:06 am-------30.26-- 65.7----
2024-06-16 09:00 am-------30.26+0.01- 65.7----
2024-06-16 08:54 am-------30.26-- 65.5----
2024-06-16 08:48 am-------30.26-- 65.5----
2024-06-16 08:42 am-------30.27-- 65.5----
2024-06-16 08:36 am-------30.27-- 65.5----
2024-06-16 08:30 am-------30.27-- 65.5----
2024-06-16 08:24 am-------30.27-- 65.5----
2024-06-16 08:18 am-------30.27-- 65.5----
2024-06-16 08:12 am-------30.27-- 65.5----
2024-06-16 08:06 am-------30.27-- 65.5----
2024-06-16 08:00 am-------30.27+0.03- 65.5----
2024-06-16 07:54 am-------30.27-- 65.5----
2024-06-16 07:48 am-------30.27-- 65.5----
2024-06-16 07:42 am-------30.27-- 65.5----
2024-06-16 07:36 am-------30.27-- 65.3----
2024-06-16 07:30 am-------30.27-- 65.3----
2024-06-16 07:24 am-------30.27-- 65.3----
2024-06-16 07:18 am-------30.26-- 65.3----
2024-06-16 07:12 am-------30.26-- 65.3----
2024-06-16 07:06 am-------30.26-- 65.3----
2024-06-16 07:00 am-------30.26-- 65.3----
2024-06-16 06:54 am-------30.26-- 65.3----